Regional Weather Roundup
Issued by NWS

Home | Current Version | Previous Version | Graphics & Text | Print | Product List | Glossary On
Versions: 1 2 3 4 5 6 7 8 9 10 11 12 13 14 15 16 17 18 19 20 21 22 23 24 25 26 27 28 29 30 31 32 33 34 35 36 37 38 39 40 41 42 43 44 45 46 47 48 49 50
000
ASUS45 KABQ 312010
RWRNM
NEW MEXICO REGIONAL WEATHER ROUNDUP
NATIONAL WEATHER SERVICE ALBUQUERQUE NM
200 PM MDT MON AUG 31 2015

NOTE: "FAIR" MEANS FEW OR NO CLOUDS BELOW 12,000 FEET AGL WITH NO
       SIGNIFICANT WEATHER OR OBSTRUCTIONS TO VISION.

      THIS PRODUCT IS RELEASED AS TWO VERSIONS.  ONE VERSION NEAR
      THE TOP OF THE HOUR CONTAINING PRELIMINARY DATA FROM ALBUQUERQUE
      AND OTHER STATIONS.  A FINAL VERSION WITH ADDITIONAL DATA IS
      ISSUED ABOUT 10 MINUTES AFTER THE HOUR.

NMZ501-503-504-510>518-312100-
NORTHWEST PLATEAU/NORTHCENTRAL MOUNTAINS

CITY           SKY/WX    TMP DP  RH WIND       PRES   REMARKS
FARMINGTON     SUNNY     83  48  29 W8        30.16F
LOS ALAMOS     RAIN      64  53  68 SW13      30.29S
SANTA FE       MOSUNNY   88  43  20 W16G22    30.18F
TAOS           MOSUNNY   82  43  24 W12G21    30.25F
ANGEL FIRE     FAIR      73  44  35 W15       30.34F

$$
NMZ402-403-502-505>509-312100-
WESTCENTRAL MOUNTAINS/SOUTHWEST MOUNTAINS

CITY           SKY/WX    TMP DP  RH WIND       PRES   REMARKS
GALLUP         MOSUNNY   83  43  24 VRB6      30.23F
GRANTS         PTSUNNY   84  45  25 NW9       30.24F
SILVER CITY      N/A     84  48  28 S5        30.18F

$$
NMZ407-409-411-412-312100-
SOUTHERN DESERTS

CITY           SKY/WX    TMP DP  RH WIND       PRES   REMARKS
DEMING         MOSUNNY   93  45  19 SW12      30.07F
LAS CRUCES     MOSUNNY   91  41  17 CALM      30.09F
HOLLOMAN AFB   SUNNY     92  48  21 VRB2      30.04F
ALAMOGORDO     SUNNY     91  46  21 W10       30.06F
T OR C         CLOUDY    82  47  29 W17G36    30.12F

$$
NMZ519>523-312100-
CENTRAL VALLEYS/CENTRAL HIGHLANDS

CITY           SKY/WX    TMP DP  RH WIND       PRES   REMARKS
ALBUQUERQUE    MOSUNNY   88  46  23 VRB7      30.14F
DOUBLE EAGLE   MOSUNNY   86  46  25 W8        30.18F
MORIARTY ARPT  MOCLDY    85  40  20 W9G17     30.20F
CLINES CORNERS SUNNY     82  45  27 W18G28    30.23F
BELEN          FAIR      89  42  19 NW5       30.13F
SOCORRO        FAIR      88  46  23 NE6       30.10F

$$
NMZ524>526-539-540-312100-
SOUTHCENTRAL MOUNTAINS

CITY           SKY/WX    TMP DP  RH WIND       PRES   REMARKS
RUIDOSO        SUNNY     81  45  28 MISG      30.27F

$$
NMZ527>531-312100-
NORTHEAST HIGHLANDS/NORTHEAST PLAINS

CITY           SKY/WX    TMP DP  RH WIND       PRES   REMARKS
LAS VEGAS      TSTM      64  52  64 N15       30.22R
RATON          LGT RAIN  76  49  38 N16G23    30.14R
CLAYTON        SUNNY     91  52  26 SE8G18    30.04F

$$
NMZ532>537-312100-
EASTCENTRAL PLAINS

CITY           SKY/WX    TMP DP  RH WIND       PRES   REMARKS
TUCUMCARI      SUNNY     94  50  22 SW8       29.99F
CANNON AFB     SUNNY     91  50  24 S14G20    30.05F
CLOVIS AIRPORT SUNNY     91  50  24 MISG        N/A

$$
NMZ028-029-538-312100-
SOUTHEAST PLAINS

CITY           SKY/WX    TMP DP  RH WIND       PRES   REMARKS
ROSWELL        SUNNY     95  48  20 SE8       30.02
ARTESIA        SUNNY     93  52  24 SE17G24   30.02F
CARLSBAD       SUNNY     95  48  20 SE13G24   30.01
HOBBS          SUNNY     88  45  22 SE13      30.08F


$$



USA.gov is the U.S. government's official web portal to all federal, state and local government web resources and services.